User: anonymous   Login
Location: Rancho Del Sol Observatory
(38.7214°N, 120.6350°W)
Time: 16:42:51
(UTC-08:00)
Language:

Cosmos 2221 Rocket - Orbit

View from above orbital plane
View from above orbital plane
View from above satellite
View from above satellite

Ground track
Ground track

The orbit data is extracted from the following two-line orbital elements,

1 22237U 92080B   17016.19580389  .00000044  00000-0  28508-5 0  9999
2 22237  82.5117 259.1030 0019390 346.9847 128.0289 14.78298882300982
Epoch (UTC): 16 January 2017 04:41:57
Eccentricity: 0.0019390
inclination: 82.5117°
perigee height: 621 km
apogee height: 648 km
right ascension of ascending node: 259.1030°
argument of perigee: 346.9847°
revolutions per day: 14.78298882
mean anomaly at epoch: 128.0289°
orbit number at epoch: 30098

The dashed part of the orbit path shows where the satellite is in the earth's shadow,  

DLR